Time,TemperatureF,DewpointF,PressureIn,WindDirection,WindDirectionDegrees,WindSpeedMPH,WindSpeedGustMPH,Humidity,HourlyPrecipIn,Conditions,Clouds,dailyrainin,SoftwareType,DateUTC
2013-12-03 00:00:00,42.1,38.8,29.70,South,180,5.0,13.0,88,0.00,,,-99.99,WeatherLink 5.6,2013-12-03 05:00:00,
2013-12-03 00:30:00,42.2,38.9,29.70,South,180,6.0,13.0,88,0.00,,,-99.99,WeatherLink 5.6,2013-12-03 05:30:00,
2013-12-03 01:00:00,42.2,38.9,29.69,South,180,5.0,14.0,88,0.00,,,-99.99,WeatherLink 5.6,2013-12-03 06:00:00,
2013-12-03 01:30:00,41.8,38.5,29.68,SSE,157,2.0,10.0,88,0.00,,,-99.99,WeatherLink 5.6,2013-12-03 06:30:00,
2013-12-03 02:00:00,42.5,38.9,29.69,South,180,3.0,11.0,87,0.00,,,-99.99,WeatherLink 5.6,2013-12-03 07:00:00,
2013-12-03 02:30:00,43.2,39.6,29.69,South,180,3.0,11.0,87,0.00,,,-99.99,WeatherLink 5.6,2013-12-03 07:30:00,
2013-12-03 03:00:00,42.8,38.9,29.70,South,180,4.0,10.0,86,0.00,,,-99.99,WeatherLink 5.6,2013-12-03 08:00:00,
2013-12-03 03:30:00,42.8,39.2,29.69,South,180,4.0,11.0,87,0.00,,,-99.99,WeatherLink 5.6,2013-12-03 08:30:00,
2013-12-03 04:00:00,43.0,39.7,29.70,South,180,4.0,10.0,88,0.00,,,-99.99,WeatherLink 5.6,2013-12-03 09:00:00,
2013-12-03 04:30:00,42.9,40.2,29.70,South,180,2.0,7.0,90,0.00,,,-99.99,WeatherLink 5.6,2013-12-03 09:30:00,
2013-12-03 05:30:00,42.4,40.2,29.73,North,-999,0.0,0.0,92,0.00,,,-99.99,WeatherLink 5.6,2013-12-03 10:30:00,
2013-12-03 06:00:00,42.3,40.4,29.72,South,180,3.0,12.0,93,0.00,,,-99.99,WeatherLink 5.6,2013-12-03 11:00:00,
2013-12-03 06:30:00,41.9,40.0,29.72,South,180,4.0,13.0,93,0.00,,,-99.99,WeatherLink 5.6,2013-12-03 11:30:00,
2013-12-03 07:00:00,41.8,39.9,29.73,South,180,5.0,13.0,93,0.00,,,-99.99,WeatherLink 5.6,2013-12-03 12:00:00,
2013-12-03 07:30:00,41.9,40.0,29.73,South,180,2.0,9.0,93,0.00,,,-99.99,WeatherLink 5.6,2013-12-03 12:30:00,
2013-12-03 08:00:00,42.4,40.5,29.73,South,180,3.0,10.0,93,0.00,,,-99.99,WeatherLink 5.6,2013-12-03 13:00:00,
2013-12-03 08:30:00,42.5,40.3,29.74,South,180,2.0,9.0,92,0.00,,,-99.99,WeatherLink 5.6,2013-12-03 13:30:00,
2013-12-03 09:00:00,42.6,40.4,29.75,South,180,4.0,11.0,92,0.00,,,-99.99,WeatherLink 5.6,2013-12-03 14:00:00,
2013-12-03 09:30:00,43.7,41.8,29.75,South,180,1.0,6.0,93,0.00,,,-99.99,WeatherLink 5.6,2013-12-03 14:30:00,
2013-12-03 10:00:00,44.7,41.9,29.76,South,180,3.0,10.0,90,0.00,,,-99.99,WeatherLink 5.6,2013-12-03 15:00:00,
2013-12-03 10:30:00,46.0,42.6,29.76,South,180,2.0,10.0,88,0.00,,,-99.99,WeatherLink 5.6,2013-12-03 15:30:00,
2013-12-03 11:00:00,45.8,42.4,29.76,South,180,4.0,12.0,88,0.00,,,-99.99,WeatherLink 5.6,2013-12-03 16:00:00,
2013-12-03 11:30:00,46.0,43.2,29.76,South,180,6.0,12.0,90,0.00,,,-99.99,WeatherLink 5.6,2013-12-03 16:30:00,
2013-12-03 12:00:00,48.7,45.0,29.74,South,180,5.0,13.0,87,0.00,,,-99.99,WeatherLink 5.6,2013-12-03 17:00:00,
2013-12-03 12:30:00,50.0,45.4,29.73,South,180,4.0,12.0,84,0.00,,,-99.99,WeatherLink 5.6,2013-12-03 17:30:00,
2013-12-03 13:00:00,51.4,46.1,29.71,South,180,3.0,9.0,82,0.00,,,-99.99,WeatherLink 5.6,2013-12-03 18:00:00,
2013-12-03 13:30:00,52.2,46.2,29.71,SW,225,1.0,6.0,80,0.00,,,-99.99,WeatherLink 5.6,2013-12-03 18:30:00,
2013-12-03 14:00:00,52.9,46.6,29.70,South,180,1.0,7.0,79,0.00,,,-99.99,WeatherLink 5.6,2013-12-03 19:00:00,
2013-12-03 14:30:00,52.2,46.2,29.71,SSW,202,2.0,10.0,80,0.00,,,-99.99,WeatherLink 5.6,2013-12-03 19:30:00,
2013-12-03 15:00:00,51.7,46.1,29.71,South,180,1.0,7.0,81,0.00,,,-99.99,WeatherLink 5.6,2013-12-03 20:00:00,
2013-12-03 15:30:00,51.7,46.4,29.71,South,180,3.0,9.0,82,0.00,,,-99.99,WeatherLink 5.6,2013-12-03 20:30:00,
2013-12-03 16:00:00,51.5,46.2,29.71,South,180,1.0,6.0,82,0.00,,,-99.99,WeatherLink 5.6,2013-12-03 21:00:00,
2013-12-03 16:30:00,51.1,45.8,29.71,North,-999,0.0,0.0,82,0.00,,,-99.99,WeatherLink 5.6,2013-12-03 21:30:00,
2013-12-03 17:00:00,50.8,45.5,29.71,SSE,157,0.0,5.0,82,0.00,,,-99.99,WeatherLink 5.6,2013-12-03 22:00:00,
2013-12-03 17:30:00,50.3,45.3,29.72,SSE,157,1.0,5.0,83,0.00,,,-99.99,WeatherLink 5.6,2013-12-03 22:30:00,
2013-12-03 18:00:00,50.2,45.2,29.72,SSE,157,0.0,4.0,83,0.00,,,-99.99,WeatherLink 5.6,2013-12-03 23:00:00,
2013-12-03 18:30:00,50.0,45.4,29.72,SSE,157,3.0,8.0,84,0.00,,,-99.99,WeatherLink 5.6,2013-12-03 23:30:00,
2013-12-03 19:00:00,50.1,45.1,29.71,SSE,157,4.0,10.0,83,0.00,,,-99.99,WeatherLink 5.6,2013-12-04 00:00:00,
2013-12-03 19:30:00,49.7,44.7,29.71,SSE,157,5.0,10.0,83,0.00,,,-99.99,WeatherLink 5.6,2013-12-04 00:30:00,
2013-12-03 20:00:00,50.1,44.8,29.71,SSE,157,4.0,10.0,82,0.00,,,-99.99,WeatherLink 5.6,2013-12-04 01:00:00,
2013-12-03 20:30:00,50.0,44.4,29.72,SSE,157,3.0,7.0,81,0.00,,,-99.99,WeatherLink 5.6,2013-12-04 01:30:00,
2013-12-03 21:00:00,50.4,44.8,29.73,South,180,4.0,12.0,81,0.00,,,-99.99,WeatherLink 5.6,2013-12-04 02:00:00,
2013-12-03 21:30:00,49.5,44.2,29.73,South,180,5.0,12.0,82,0.00,,,-99.99,WeatherLink 5.6,2013-12-04 02:30:00,
2013-12-03 22:00:00,48.8,43.9,29.73,South,180,5.0,12.0,83,0.00,,,-99.99,WeatherLink 5.6,2013-12-04 03:00:00,
2013-12-03 22:30:00,48.6,44.0,29.73,South,180,5.0,14.0,84,0.00,,,-99.99,WeatherLink 5.6,2013-12-04 03:30:00,
2013-12-03 23:00:00,49.2,44.3,29.73,South,180,6.0,13.0,83,0.00,,,-99.99,WeatherLink 5.6,2013-12-04 04:00:00,
2013-12-03 23:30:00,48.6,44.0,29.72,South,180,6.0,16.0,84,0.00,,,-99.99,WeatherLink 5.6,2013-12-04 04:30:00,